RS-44 & BREEZE-KM R/B

Last updated on Mon Sep 15 2025 00:03:09 GMT+0000 (Coordinated Universal Time)

1 44909U 19096E 25257.18581665 .00000027 00000+0 56787-4 0 9997 2 44909 82.5254 163.1115 0218529 69.7497 292.6951 12.79743431267045
UTC large
Height (km)
Speed (km/s)
/
Latitude / Longitude
Inclination (degrees)
Orbital Period (minutes)
Azimuth
Elevation
Range (km)
Doppler Factor

Next 0 passes for location: London (51.5072 / 0.1276)

Sorry there are no passes over London.